• In Netherlands
  • List of Countries
  • For 7 days
  • Water Temperature
  • Satellite Maps
  • Weather Map
  • Weather Widgets
  • user-avatar
    Login

    Hourly Weather Kitzbuhel

    Today, 27 April, Thursday

    Time Temperature Precipitation Wind Pressure Humidity
    00:00 +3°C° 1.3 mm 1 mps 670 mmHg 98%
    01:00 +3°C° 1.3 mm 1 mps 670 mmHg 98%
    02:00 +3°C° 0.8 mm 1 mps 670 mmHg 98%
    03:00 +3°C° 0.8 mm 1 mps 670 mmHg 98%
    04:00 +3°C° 0.8 mm 1 mps 669 mmHg 98%
    05:00 +3°C° 0.5 mm 1 mps 670 mmHg 98%
    06:00 +3°C° 0.5 mm 1 mps 670 mmHg 98%
    07:00 +3°C° 0.5 mm 1 mps 670 mmHg 98%
    08:00 +3°C° 0.5 mm 1 mps 670 mmHg 98%
    09:00 +4°C° 0.5 mm 1 mps 670 mmHg 98%
    10:00 +4°C° 0.5 mm 1 mps 671 mmHg 97%
    11:00 +5°C° 0.6 mm 1 mps 671 mmHg 97%
    12:00 +5°C° 0.6 mm 1 mps 671 mmHg 96%
    13:00 +5°C° 0.6 mm 1 mps 671 mmHg 96%
    14:00 +5°C° 0.9 mm 1 mps 671 mmHg 96%
    15:00 +5°C° 0.9 mm 1 mps 671 mmHg 97%
    16:00 +5°C° 0.9 mm 1 mps 671 mmHg 97%
    17:00 +4°C° 1.4 mm 2 mps 670 mmHg 98%
    18:00 +3°C° 1.4 mm 2 mps 670 mmHg 98%
    19:00 +3°C° 1.4 mm 2 mps 670 mmHg 99%
    20:00 +2°C° 2.2 mm 2 mps 670 mmHg 99%
    21:00 +2°C° 2.2 mm 2 mps 670 mmHg 99%
    22:00 +2°C° 2.2 mm 2 mps 670 mmHg 98%
    23:00 +1°C° 2.2 mm 2 mps 669 mmHg 98%

    Tomorrow, 28 April, Friday

    Time Temperature Precipitation Wind Pressure Humidity
    00:00 +1°C° 2.2 mm 2 mps 669 mmHg 98%
    01:00 +1°C° 2.2 mm 2 mps 669 mmHg 98%
    02:00 +1°C° 1.5 mm 2 mps 668 mmHg 98%
    03:00 +1°C° 1.5 mm 2 mps 668 mmHg 98%
    04:00 +2°C° 1.5 mm 1 mps 668 mmHg 98%
    05:00 +2°C° 1.1 mm 1 mps 668 mmHg 98%
    06:00 +2°C° 1.1 mm 1 mps 668 mmHg 98%
    07:00 +1°C° 1.1 mm 2 mps 668 mmHg 98%
    08:00 +1°C° 1.2 mm 2 mps 668 mmHg 98%
    09:00 +2°C° 1.2 mm 2 mps 668 mmHg 98%
    10:00 +2°C° 1.2 mm 2 mps 668 mmHg 98%
    11:00 +2°C° 1 mm 2 mps 669 mmHg 98%
    12:00 +3°C° 1 mm 2 mps 669 mmHg 98%
    13:00 +3°C° 1 mm 2 mps 669 mmHg 98%
    14:00 +3°C° 1.3 mm 2 mps 669 mmHg 98%
    15:00 +2°C° 1.3 mm 2 mps 670 mmHg 98%
    16:00 +2°C° 1.3 mm 2 mps 670 mmHg 98%
    17:00 +2°C° 1 mm 2 mps 670 mmHg 98%
    18:00 +1°C° 1 mm 2 mps 671 mmHg 98%
    19:00 +1°C° 1 mm 2 mps 671 mmHg 98%
    20:00 +1°C° 1 mm 2 mps 672 mmHg 98%
    21:00 +1°C° 1 mm 2 mps 673 mmHg 98%
    22:00 +1°C° 1 mm 2 mps 673 mmHg 98%
    23:00 -1°C° 0.8 mm 2 mps 673 mmHg 98%

    Day after tomorrow, 29 April, Saturday

    Time Temperature Precipitation Wind Pressure Humidity
    00:00 -1°C° 0.8 mm 2 mps 674 mmHg 98%
    01:00 -1°C° 0.8 mm 2 mps 674 mmHg 98%
    02:00 -1°C° 0.4 mm 2 mps 674 mmHg 97%
    03:00 -2°C° 0.4 mm 2 mps 674 mmHg 97%
    04:00 -2°C° 0.4 mm 2 mps 675 mmHg 97%
    05:00 -1°C° 0.2 mm 2 mps 675 mmHg 97%
    06:00 -1°C° 0.2 mm 2 mps 675 mmHg 96%
    07:00 +2°C° 0.2 mm 1 mps 675 mmHg 96%
    08:00 +3°C° 0 mm 1 mps 675 mmHg 95%
    09:00 +4°C° 0 mm 1 mps 675 mmHg 94%
    10:00 +4°C° 0 mm 0 mps 675 mmHg 93%
    11:00 +4°C° 0 mm 0 mps 675 mmHg 93%
    12:00 +6°C° 0 mm 1 mps 675 mmHg 92%
    13:00 +6°C° 0 mm 1 mps 675 mmHg 91%
    14:00 +6°C° 0 mm 1 mps 675 mmHg 91%
    15:00 +6°C° 0 mm 1 mps 674 mmHg 90%
    16:00 +7°C° 0 mm 1 mps 674 mmHg 90%
    17:00 +5°C° 0 mm 1 mps 674 mmHg 92%
    18:00 +3°C° 0 mm 1 mps 674 mmHg 94%
    19:00 +2°C° 0 mm 1 mps 673 mmHg 96%
    20:00 +1°C° 0 mm 1 mps 673 mmHg 96%
    21:00 0°C° 0 mm 1 mps 673 mmHg 95%
    22:00 -2°C° 0 mm 2 mps 674 mmHg 95%
    23:00 -2°C° 0 mm 2 mps 674 mmHg 94%

    30 April, Sunday

    Time Temperature Precipitation Wind Pressure Humidity
    00:00 -3°C° 0 mm 2 mps 674 mmHg 93%
    01:00 -3°C° 0 mm 2 mps 674 mmHg 93%
    02:00 -3°C° 0 mm 2 mps 673 mmHg 92%
    03:00 -3°C° 0 mm 2 mps 673 mmHg 92%
    04:00 -3°C° 0 mm 2 mps 673 mmHg 91%
    05:00 -1°C° 0 mm 2 mps 674 mmHg 91%
    06:00 +1°C° 0 mm 2 mps 674 mmHg 90%
    07:00 +3°C° 0 mm 2 mps 675 mmHg 89%
    08:00 +4°C° 0 mm 2 mps 674 mmHg 89%
    09:00 +6°C° 0 mm 1 mps 674 mmHg 89%
    10:00 +8°C° 0 mm 1 mps 674 mmHg 90%
    11:00 +8°C° 0 mm 1 mps 674 mmHg 89%
    12:00 +8°C° 0 mm 2 mps 674 mmHg 88%
    13:00 +8°C° 0 mm 2 mps 674 mmHg 87%
    14:00 +9°C° 0 mm 2 mps 673 mmHg 87%
    15:00 +9°C° 0 mm 2 mps 673 mmHg 87%
    16:00 +9°C° 0 mm 2 mps 673 mmHg 87%
    17:00 +8°C° 0 mm 2 mps 673 mmHg 89%
    18:00 +7°C° 0 mm 2 mps 673 mmHg 91%
    19:00 +6°C° 0 mm 2 mps 673 mmHg 93%
    20:00 +5°C° 0 mm 2 mps 673 mmHg 93%
    21:00 +4°C° 0 mm 2 mps 673 mmHg 93%
    22:00 +2°C° 0 mm 3 mps 673 mmHg 94%
    23:00 +2°C° 0 mm 3 mps 673 mmHg 93%

    1 May, Monday

    Time Temperature Precipitation Wind Pressure Humidity
    00:00 +2°C° 0 mm 3 mps 673 mmHg 92%
    01:00 +1°C° 0 mm 3 mps 672 mmHg 91%
    02:00 +1°C° 0 mm 3 mps 672 mmHg 91%
    03:00 +1°C° 0 mm 2 mps 672 mmHg 90%
    04:00 +1°C° 0 mm 2 mps 672 mmHg 89%
    05:00 +2°C° 0 mm 2 mps 672 mmHg 88%
    06:00 +3°C° 0 mm 2 mps 672 mmHg 86%
    07:00 +4°C° 0 mm 2 mps 672 mmHg 85%
    08:00 +5°C° 0 mm 3 mps 672 mmHg 84%
    09:00 +7°C° 0 mm 3 mps 672 mmHg 82%
    10:00 +9°C° 0 mm 3 mps 672 mmHg 81%
    11:00 +10°C° 0 mm 3 mps 672 mmHg 80%
    12:00 +11°C° 0 mm 3 mps 672 mmHg 79%
    13:00 +11°C° 0 mm 3 mps 672 mmHg 78%
    14:00 +12°C° 0 mm 3 mps 672 mmHg 78%
    15:00 +12°C° 0 mm 3 mps 672 mmHg 79%
    16:00 +12°C° 0 mm 3 mps 672 mmHg 79%
    17:00 +10°C° 0 mm 3 mps 672 mmHg 82%
    18:00 +9°C° 0 mm 3 mps 672 mmHg 84%
    19:00 +7°C° 0 mm 3 mps 672 mmHg 87%
    20:00 +5°C° 0 mm 3 mps 672 mmHg 86%
    21:00 +4°C° 0 mm 3 mps 673 mmHg 85%
    22:00 +3°C° 0 mm 3 mps 673 mmHg 84%
    23:00 +3°C° 0 mm 3 mps 673 mmHg 83%

    2 May, Tuesday

    Time Temperature Precipitation Wind Pressure Humidity
    00:00 +3°C° 0 mm 3 mps 673 mmHg 82%
    01:00 +2°C° 0 mm 3 mps 673 mmHg 81%
    02:00 +3°C° 0 mm 2 mps 673 mmHg 81%
    03:00 +3°C° 0 mm 2 mps 673 mmHg 81%
    04:00 +2°C° 0 mm 2 mps 674 mmHg 80%
    05:00 +4°C° 0 mm 2 mps 674 mmHg 81%
    06:00 +5°C° 0 mm 2 mps 675 mmHg 81%
    07:00 +7°C° 0 mm 2 mps 675 mmHg 81%
    08:00 +9°C° 0 mm 1 mps 675 mmHg 79%
    09:00 +11°C° 0 mm 1 mps 676 mmHg 77%
    10:00 +12°C° 0 mm 1 mps 676 mmHg 75%
    11:00 +12°C° 0 mm 1 mps 676 mmHg 75%
    12:00 +13°C° 0 mm 2 mps 676 mmHg 75%
    13:00 +13°C° 0 mm 2 mps 676 mmHg 75%
    14:00 +13°C° 0.2 mm 2 mps 677 mmHg 78%
    15:00 +13°C° 0.2 mm 2 mps 677 mmHg 80%
    16:00 +13°C° 0.2 mm 2 mps 677 mmHg 82%
    17:00 +12°C° 0.3 mm 2 mps 676 mmHg 86%
    18:00 +11°C° 0.3 mm 1 mps 676 mmHg 91%
    19:00 +9°C° 0.3 mm 1 mps 676 mmHg 95%
    20:00 +8°C° 0.1 mm 1 mps 676 mmHg 95%
    21:00 +7°C° 0.1 mm 1 mps 676 mmHg 96%
    22:00 +6°C° 0.1 mm 1 mps 676 mmHg 96%
    23:00 +6°C° 0 mm 1 mps 676 mmHg 95%
    Show more